Rogers City, MI

1:26 AM EST on February 23, 2017 (GMT -0500)
Presque Isle County

Weather History for KPZQ - January, 2013

Change the Weather History Date:

Thursday, January 24, 2013

  Actual Average (KAPN) Record (KAPN)
Temperature  
Mean Temperature 6 °F -  
Max Temperature 12 °F 28 °F 44 °F (1938)
Min Temperature 0 °F 13 °F -17 °F (1970)
Degree Days  
Heating Degree Days 59    
Moisture  
Dew Point -1 °F    
Average Humidity 74    
Maximum Humidity 82    
Minimum Humidity 61    
Precipitation  
Precipitation 0.00 in - - ()
Sea Level Pressure  
Sea Level Pressure 30.48 in    
Wind  
Wind Speed 9 mph (NW)    
Max Wind Speed 14 mph    
Max Gust Speed 20 mph    
Visibility 7 miles    
Events Snow    
Averages and records for this station are not official NWS values.
T = Trace of Precipitation, MM = Missing Value Source: NWS Daily Summary

Daily Weather History Graph

Daily Weather History Graph

Search for Another Location

Airport or City:

Trip Planner

Search our weather history database for the weather conditions in past years. The results will help you decide how hot, cold, wet, or windy it might be!

Date:

Astronomy

Jan. 24, 2013 Rise Set
Actual Time 8:04 AM EST 5:31 PM EST
Civil Twilight 7:32 AM EST 6:03 PM EST
Nautical Twilight 6:56 AM EST 6:39 PM EST
Astronomical Twilight 6:21 AM EST 7:14 PM EST
Moon 3:30 PM EST (1/24) 6:03 AM EST (1/24)
Length of Visible Light 10h 31m
Length of Day
9h 26m
Waxing Gibbous, 94% of the Moon is Illuminated
Jan 24
Waxing Gibbous
Jan 26
Full
Feb 3
Last Quarter
Feb 10
New
Feb 17
First Quarter

Hourly Weather History & Observations

Time (EST) Temp. Windchill Dew Point Humidity Pressure Visibility Wind Dir Wind Speed Gust Speed Precip Events Conditions
12:15 AM 12.2 °F -3.1 °F 5.9 °F 76% 30.20 in 10.0 mi NNE 13.8 mph 18.4 mph N/A   Overcast
12:35 AM 11.8 °F -3.0 °F 5.4 °F 75% 30.22 in 10.0 mi NNE 12.7 mph 18.4 mph N/A   Overcast
12:55 AM 11.3 °F -2.9 °F 5.0 °F 76% 30.23 in 10.0 mi NNE 11.5 mph 19.6 mph N/A   Overcast
1:15 AM 10.9 °F -3.4 °F 3.4 °F 72% 30.25 in 10.0 mi NNE 11.5 mph 19.6 mph N/A   Overcast
1:35 AM 10.4 °F -2.4 °F 3.2 °F 73% 30.26 in 10.0 mi NNE 9.2 mph 17.3 mph N/A   Overcast
1:55 AM 10.4 °F -3.3 °F 3.6 °F 74% 30.28 in 10.0 mi NNE 10.4 mph - N/A   Overcast
2:15 AM 9.9 °F -2.2 °F 3.9 °F 77% 30.30 in 7.0 mi NNE 8.1 mph 18.4 mph N/A   Overcast
2:35 AM 9.3 °F -5.4 °F 3.7 °F 78% 30.32 in 3.0 mi NNE 11.5 mph 17.3 mph N/A Snow Light Snow
2:55 AM 8.6 °F -6.3 °F 3.9 °F 81% 30.34 in 1.5 mi North 11.5 mph 18.4 mph N/A Snow Light Snow
3:15 AM 7.7 °F -8.2 °F 2.7 °F 80% 30.35 in 2.5 mi NNE 12.7 mph 18.4 mph N/A Snow Light Snow
3:35 AM 7.5 °F -5.0 °F 3.2 °F 82% 30.36 in 1.2 mi North 8.1 mph 17.3 mph N/A Snow Light Snow
3:55 AM 6.6 °F -8.8 °F 1.4 °F 79% 30.38 in 7.0 mi North 11.5 mph - N/A   Overcast
4:15 AM 6.3 °F -7.5 °F 1.0 °F 79% 30.39 in 4.0 mi North 9.2 mph 17.3 mph N/A Snow Light Snow
4:35 AM 5.9 °F -8.0 °F 1.0 °F 80% 30.40 in 3.0 mi North 9.2 mph 17.3 mph N/A Snow Light Snow
4:56 AM 5.5 °F -10.9 °F 0.5 °F 80% 30.42 in 2.0 mi NNE 12.7 mph 19.6 mph N/A Snow Light Snow
5:15 AM 5.0 °F -9.1 °F 0.1 °F 80% 30.43 in 2.5 mi North 9.2 mph - N/A Snow Light Snow
5:35 AM 4.6 °F -9.5 °F -0.4 °F 80% 30.44 in 2.5 mi North 9.2 mph 16.1 mph N/A Snow Light Snow
5:56 AM 4.6 °F -10.4 °F -0.6 °F 79% 30.45 in 2.0 mi North 10.4 mph - N/A Snow Light Snow
6:15 AM 4.5 °F -10.7 °F -0.9 °F 78% 30.47 in 2.5 mi North 10.4 mph - N/A Snow Light Snow
6:35 AM 4.1 °F -9.2 °F -1.7 °F 77% 30.48 in 4.0 mi North 8.1 mph - N/A   Haze
7:15 AM 3.9 °F -9.4 °F -1.7 °F 78% 30.50 in 2.5 mi NNW 8.1 mph - N/A Snow Light Snow
7:35 AM 3.6 °F -9.8 °F -2.2 °F 77% 30.51 in 3.0 mi North 8.1 mph - N/A Snow Light Snow
7:55 AM 3.6 °F -10.9 °F -2.4 °F 76% 30.51 in 3.0 mi North 9.2 mph - N/A Snow Light Snow
8:16 AM 3.4 °F -11.1 °F -3.1 °F 74% 30.52 in 4.0 mi NNW 9.2 mph - N/A Snow Light Snow
8:35 AM 3.4 °F -8.9 °F -2.7 °F 76% 30.53 in 3.0 mi NW 6.9 mph - N/A Snow Light Snow
8:55 AM 3.9 °F -5.3 °F -2.2 °F 76% 30.53 in 2.0 mi NW 4.6 mph - N/A Snow Light Snow
9:15 AM 4.5 °F -6.3 °F -1.3 °F 77% 30.54 in 2.0 mi WNW 5.8 mph - N/A Snow Light Snow
9:35 AM 3.6 °F -8.7 °F -2.0 °F 78% 30.55 in 2.0 mi WNW 6.9 mph - N/A Snow Light Snow
9:55 AM 4.5 °F -8.7 °F -1.7 °F 76% 30.57 in 4.0 mi NW 8.1 mph - N/A Snow Light Snow
10:15 AM 5.2 °F -6.7 °F -1.3 °F 75% 30.58 in 3.0 mi WNW 6.9 mph - N/A   Haze
10:35 AM 5.2 °F -8.9 °F -1.7 °F 73% 30.58 in 4.0 mi NW 9.2 mph - N/A Snow Light Snow
10:55 AM 5.9 °F -8.9 °F -0.8 °F 74% 30.59 in 1.0 mi WNW 10.4 mph 16.1 mph N/A Snow Light Snow
11:15 AM 6.4 °F -9.0 °F -0.4 °F 74% 30.59 in 1.5 mi NW 11.5 mph - N/A   Haze
11:35 AM 7.0 °F -7.5 °F -0.8 °F 71% 30.59 in 3.0 mi NNW 10.4 mph - N/A   Haze
11:55 AM 6.8 °F -5.9 °F -1.1 °F 70% 30.58 in 2.0 mi NW 8.1 mph - N/A   Haze
12:15 PM 7.3 °F -7.9 °F -0.6 °F 70% 30.57 in 3.0 mi NNW 11.5 mph - N/A   Haze
12:35 PM 7.7 °F -6.6 °F -0.4 °F 70% 30.58 in 3.0 mi NNW 10.4 mph - N/A   Haze
12:55 PM 7.7 °F -8.2 °F -1.3 °F 67% 30.57 in 5.0 mi NW 12.7 mph 17.3 mph N/A   Haze
1:15 PM 8.4 °F -6.5 °F -0.2 °F 68% 30.57 in 4.0 mi NW 11.5 mph 17.3 mph N/A   Haze
1:35 PM 8.2 °F -6.0 °F -0.2 °F 68% 30.56 in 7.0 mi WNW 10.4 mph 16.1 mph N/A   Overcast
1:55 PM 9.0 °F -2.2 °F 0.5 °F 69% 30.56 in 2.0 mi WNW 6.9 mph - N/A   Haze
2:16 PM 9.5 °F -3.5 °F 0.3 °F 66% 30.56 in 10.0 mi West 9.2 mph - N/A   Mostly Cloudy
2:35 PM 10.4 °F 0.8 °F 0.3 °F 64% 30.56 in 10.0 mi NW 5.8 mph 9.2 mph N/A   Mostly Cloudy
2:55 PM 10.6 °F -0.2 °F 0.3 °F 63% 30.56 in 10.0 mi WNW 6.9 mph - N/A   Overcast
3:15 PM 10.2 °F -1.7 °F -0.9 °F 61% 30.56 in 10.0 mi NW 8.1 mph - N/A   Scattered Clouds
3:35 PM 9.3 °F -2.8 °F -0.6 °F 64% 30.55 in 10.0 mi NW 8.1 mph - N/A   Scattered Clouds
3:55 PM 9.5 °F 1.2 °F -0.4 °F 64% 30.55 in 10.0 mi WNW 4.6 mph - N/A   Scattered Clouds
4:15 PM 9.5 °F -0.3 °F -0.6 °F 64% 30.56 in 10.0 mi West 5.8 mph - N/A   Scattered Clouds
4:35 PM 9.9 °F 1.6 °F -0.0 °F 64% 30.56 in 10.0 mi WNW 4.6 mph - N/A   Scattered Clouds
4:56 PM 8.8 °F -2.4 °F -0.0 °F 67% 30.56 in 10.0 mi WSW 6.9 mph - N/A   Mostly Cloudy
5:15 PM 7.5 °F -3.9 °F -0.6 °F 70% 30.57 in 10.0 mi WSW 6.9 mph - N/A   Scattered Clouds
5:35 PM 6.1 °F -5.6 °F -1.5 °F 71% 30.56 in 10.0 mi WSW 6.9 mph - N/A   Clear
5:55 PM 3.9 °F -6.9 °F -3.1 °F 73% 30.55 in 10.0 mi SW 5.8 mph - N/A   Clear
6:15 PM 2.3 °F -8.8 °F -3.8 °F 76% 30.54 in 10.0 mi SW 5.8 mph - N/A   Clear
6:35 PM 2.1 °F -7.4 °F -3.6 °F 77% 30.54 in 10.0 mi WSW 4.6 mph - N/A   Clear
6:55 PM 1.8 °F -7.8 °F -4.0 °F 77% 30.54 in 10.0 mi WSW 4.6 mph - N/A   Clear
7:15 PM 1.2 °F -6.4 °F -4.4 °F 77% 30.54 in 10.0 mi SW 3.5 mph - N/A   Clear
7:35 PM -0.0 °F -9.9 °F -4.7 °F 81% 30.53 in 10.0 mi SSW 4.6 mph - N/A   Clear
7:55 PM 2.3 °F -5.2 °F -3.3 °F 77% 30.53 in 10.0 mi SSW 3.5 mph - N/A   Clear
8:16 PM -0.2 °F -10.1 °F -4.9 °F 81% 30.53 in 10.0 mi SW 4.6 mph - N/A   Clear
8:35 PM 1.8 °F -7.8 °F -3.8 °F 77% 30.52 in 10.0 mi SSW 4.6 mph - N/A   Clear
8:55 PM 0.9 °F -8.9 °F -4.7 °F 77% 30.51 in 10.0 mi SSW 4.6 mph - N/A   Clear
9:15 PM 1.9 °F -7.6 °F -4.0 °F 76% 30.50 in 10.0 mi SSW 4.6 mph - N/A   Clear
9:35 PM 2.8 °F -4.6 °F -3.3 °F 76% 30.49 in 10.0 mi South 3.5 mph - N/A   Clear
9:55 PM 3.6 °F -3.8 °F -2.6 °F 76% 30.48 in 10.0 mi South 3.5 mph - N/A   Clear
10:15 PM 4.1 °F -6.7 °F -2.6 °F 74% 30.48 in 10.0 mi SSW 5.8 mph - N/A   Clear
10:35 PM 4.6 °F -6.0 °F -2.6 °F 72% 30.46 in 10.0 mi SSW 5.8 mph - N/A   Clear
10:55 PM 4.6 °F -7.4 °F -2.6 °F 72% 30.47 in 10.0 mi SSW 6.9 mph - N/A   Clear
11:15 PM 4.6 °F -4.5 °F -2.4 °F 73% 30.46 in 10.0 mi SSW 4.6 mph - N/A   Clear
11:35 PM 4.3 °F -4.9 °F -2.4 °F 74% 30.46 in 10.0 mi SSW 4.6 mph - N/A   Clear
11:55 PM 4.1 °F -5.1 °F -2.2 °F 75% 30.45 in 10.0 mi SSW 4.6 mph - N/A   Clear